Location: Newark
(43.0000°N, 1.6781°W)
Time: 04:46:26
(UTC+00:00)

X-37B - Pass Details

Date: 07 December 2021
Orbit: 334 x 337 km, 45.0° (Epoch: 11 January)

Event Time Altitude Azimuth Distance (km) Brightness Sun altitude
Rises 17:11:35 0° 209° (SSW) 2,091 5.2 -7.3°
Reaches altitude 10° 17:14:05 10° 185° (S) 1,259 3.6 -7.7°
Maximum altitude 17:15:51 15° 145° (SE) 1,000 2.6 -8.0°
Drops below altitude 10° 17:17:39 10° 106° (ESE) 1,264 2.7 -8.3°
Enters shadow 17:18:04 - 100° (E) 1,381 2.9 -8.3°
